This demonstration page uses our WeatherBlox Daily Observations layout. Learn more.

Left ArrowRight Arrow

Hourly Observations for May 22, 2016

Temp ( °F °C ) Dew Point ( °F °C ) Humidity (%) Winds ( mph kmh ) Pressure ( in mb ) Visibility ( mi km ) Precip ( " mm )
12:54 am 00:54 Partly Cloudy 62 16.7 50 10 65 65 SE 9 15 30.06 1018 10 16 0.00 0.00
1:54 am 01:54 Clear 61 16.1 50 10 67 67 SE 9 15 30.05 1018 10 16 0.00 0.00
2:54 am 02:54 Clear 61 16.1 50 10 67 67 SE 10 17 30.04 1017 10 16 0.00 0.00
3:54 am 03:54 Mostly Cloudy 61 16.1 50 10 67 67 SSE 7 11 30.05 1018 9 14 0.00 0.00
4:54 am 04:54 Clear 60 15.6 49 9.4 67 67 SE 9 15 30.04 1017 10 16 0.00 0.00
5:54 am 05:54 Mostly Cloudy 61 16.1 49 9.4 65 65 SSE 9 15 30.05 1018 10 16 0.00 0.00
6:54 am 06:54 Mostly Cloudy 62 16.7 50 10 65 65 SE 13 20 30.03 1017 10 16 0.00 0.00
7:54 am 07:54 Sunny 64 17.8 51 10.6 63 63 SSE 16 26 30.01 1016 10 16 0.00 0.00
8:54 am 08:54 Sunny 66 18.9 52 11.1 61 61 SSE 14 22 30.02 1017 10 16 0.00 0.00
9:54 am 09:54 Sunny 72 22.2 55 12.8 55 55 SSE 15 24 29.99 1016 10 16 0.00 0.00
10:54 am 10:54 Sunny 74 23.3 57 13.9 56 56 SSE 17 28 29.97 1015 10 16 0.00 0.00
11:54 am 11:54 Sunny 75 23.9 58 14.4 55 55 S 17 28 29.95 1014 10 16 0.00 0.00
12:54 pm 12:54 Sunny 80 26.7 61 16.1 52 52 SSE 21 33 29.92 1013 10 16 0.00 0.00
1:54 pm 13:54 Sunny 80 26.7 61 16.1 52 52 SSE 17 28 29.90 1012 10 16 0.00 0.00
2:54 pm 14:54 Mostly Sunny 82 27.8 61 16.1 49 49 S 18 30 29.87 1012 10 16 0.00 0.00
3:54 pm 15:54 Sunny 83 28.3 61 16.1 48 48 SSE 23 37 29.85 1011 10 16 0.00 0.00
4:54 pm 16:54 Sunny 84 28.9 62 16.7 48 48 S 21 33 29.82 1010 10 16 0.00 0.00
5:54 pm 17:54 Mostly Cloudy 82 27.8 62 16.7 51 51 SSE 22 35 29.80 1009 10 16 0.00 0.00
6:54 pm 18:54 Mostly Sunny 81 27.2 63 17.2 54 54 SSE 20 31 29.78 1009 10 16 0.00 0.00
7:54 pm 19:54 Mostly Sunny 79 26.1 63 17.2 58 58 S 21 33 29.76 1008 10 16 0.00 0.00
8:54 pm 20:54 Clear 77 25 62 16.7 60 60 SSE 17 28 29.75 1008 10 16 0.00 0.00
9:54 pm 21:54 Mostly Cloudy 76 24.4 62 16.7 62 62 SSE 22 35 29.78 1008 10 16 0.00 0.00
10:54 pm 22:54 Mostly Cloudy 75 23.9 62 16.7 64 64 SSE 20 31 29.79 1009 10 16 0.00 0.00
11:54 pm 23:54 Clear 73 22.8 63 17.2 71 71 SSE 18 30 29.78 1009 10 16 0.00 0.00

Powered by AerisWeather